Location: Unspecified
(0.0000°N, 0.0000°E)
Time: 12:18:16
(UTC+00:00)

Transit 4A - All Passes

Search period start: 07 October 2022 00:00
Search period end: 17 October 2022 00:00
Orbit: 870 x 974 km, 66.8° (Epoch: 07 October)

Date Brightness Start Highest point End Pass type
(mag) Time Alt. Az. Time Alt. Az. Time Alt. Az.
07 Oct - 06:24:20 10° NNE 06:27:55 17° ENE 06:31:33 10° ESE daylight
07 Oct - 08:08:41 10° NW 08:13:58 36° WSW 08:19:21 10° S daylight
07 Oct - 19:19:30 10° SSW 19:25:53 83° ESE 19:32:08 10° NNE visible
08 Oct - 06:32:09 10° NNE 06:37:07 29° ENE 06:42:10 10° SE daylight
08 Oct - 08:18:55 10° WNW 08:23:11 21° WSW 08:27:31 10° SSW daylight
08 Oct - 17:46:51 10° SE 17:48:53 12° ESE 17:50:54 10° E daylight
08 Oct - 19:28:50 10° SSW 19:35:04 59° WNW 19:41:11 10° N visible
09 Oct - 06:40:41 10° N 06:46:18 51° ENE 06:52:02 10° SE daylight
09 Oct - 08:30:36 10° W 08:32:26 11° WSW 08:34:17 10° SW daylight
09 Oct - 17:53:33 10° SSE 17:58:09 21° ESE 18:02:41 10° ENE daylight
09 Oct - 19:38:35 10° SW 19:44:16 35° WNW 19:49:51 10° N visible
10 Oct - 06:49:39 10° NNW 06:55:28 89° ENE 07:01:25 10° SSE daylight
10 Oct - 18:01:40 10° S 18:07:23 35° ESE 18:12:59 10° NE visible
10 Oct - 19:48:55 10° WSW 19:53:27 21° WNW 19:57:56 10° NNW visible
11 Oct - 05:17:05 10° NE 05:18:37 11° ENE 05:20:10 10° E visible
11 Oct - 06:59:01 10° NW 07:04:39 52° WSW 07:10:25 10° S daylight
11 Oct - 18:10:20 10° S 18:16:36 59° ESE 18:22:43 10° NNE visible
11 Oct - 20:00:50 10° W 20:02:41 11° WNW 20:04:31 10° NW visible
12 Oct - 05:23:38 10° NNE 05:27:50 20° ENE 05:32:04 10° ESE visible
12 Oct - 07:08:50 10° NW 07:13:52 30° WSW 07:18:59 10° S daylight
12 Oct - 18:19:25 10° SSW 18:25:48 83° WNW 18:32:01 10° NNE visible
13 Oct - 05:31:45 10° N 05:37:00 36° ENE 05:42:21 10° SE daylight
13 Oct - 07:19:22 10° WNW 07:23:05 17° WSW 07:26:52 10° SSW daylight
13 Oct - 16:45:34 10° SE 16:48:49 14° ESE 16:52:02 10° E daylight
13 Oct - 18:28:53 10° SW 18:34:58 49° WNW 18:40:57 10° N visible
14 Oct - 05:40:27 10° N 05:46:11 63° ENE 05:52:02 10° SSE daylight
14 Oct - 16:53:00 10° SSE 16:58:04 25° ESE 17:03:03 10° ENE daylight
14 Oct - 18:38:48 10° SW 18:44:10 29° WNW 18:49:26 10° NNW visible
15 Oct - 05:49:33 10° NNW 05:55:21 76° WSW 06:01:18 10° SSE daylight
15 Oct - 17:01:21 10° S 17:07:18 42° ESE 17:13:07 10° NE daylight
15 Oct - 18:49:28 10° WSW 18:53:22 17° WNW 18:57:13 10° NNW visible
16 Oct - 04:15:37 10° NE 04:18:31 14° ENE 04:21:26 10° E visible
16 Oct - 05:59:04 10° NW 06:04:33 43° WSW 06:10:10 10° S daylight
16 Oct - 17:10:10 10° SSW 17:16:30 71° ESE 17:22:41 10° NNE daylight
